TimePDT,TemperatureF,Dew PointF,Humidity,Sea Level PressureIn,VisibilityMPH,Wind Direction,Wind SpeedMPH,Gust SpeedMPH,PrecipitationIn,Events,Conditions,WindDirDegrees,DateUTC
12:53 AM,39.0,35.1,86,29.73,10.0,NW,13.8,-,0.00,,Overcast,320,2013-03-20 07:53:00
1:53 AM,39.0,35.1,86,29.70,10.0,WNW,10.4,-,0.02,Rain,Light Rain,300,2013-03-20 08:53:00
2:53 AM,39.0,37.0,93,29.67,10.0,Calm,Calm,-,0.02,,Overcast,0,2013-03-20 09:53:00
3:48 AM,39.2,37.4,93,29.64,10.0,Calm,Calm,-,N/A,,Scattered Clouds,0,2013-03-20 10:48:00
3:53 AM,37.9,36.0,93,29.66,10.0,Calm,Calm,-,N/A,,Scattered Clouds,0,2013-03-20 10:53:00
4:53 AM,36.0,35.1,97,29.63,7.0,SSE,3.5,-,N/A,,Scattered Clouds,150,2013-03-20 11:53:00
5:07 AM,35.6,35.6,100,29.61,7.0,Calm,Calm,-,N/A,,Mostly Cloudy,0,2013-03-20 12:07:00
5:20 AM,35.6,35.6,100,29.60,6.0,Calm,Calm,-,N/A,,Overcast,0,2013-03-20 12:20:00
5:47 AM,37.4,35.6,93,29.60,1.8,Calm,Calm,-,N/A,,Overcast,0,2013-03-20 12:47:00
5:53 AM,37.0,36.0,96,29.62,1.0,Calm,Calm,-,N/A,,Overcast,0,2013-03-20 12:53:00
6:06 AM,37.4,35.6,93,29.60,0.8,Calm,Calm,-,N/A,,Mist,0,2013-03-20 13:06:00
6:30 AM,37.4,35.6,93,29.59,0.2,Calm,Calm,-,N/A,Fog,Fog,0,2013-03-20 13:30:00
6:53 AM,37.0,37.0,100,29.60,0.2,North,3.5,-,N/A,Fog,Fog,10,2013-03-20 13:53:00
7:44 AM,37.4,37.4,100,29.56,0.5,Calm,Calm,-,N/A,Fog,Fog,0,2013-03-20 14:44:00
7:53 AM,37.9,37.0,97,29.57,0.8,Calm,Calm,-,N/A,,Mist,0,2013-03-20 14:53:00
8:12 AM,37.4,37.4,100,29.55,2.5,Calm,Calm,-,N/A,,Overcast,0,2013-03-20 15:12:00
8:20 AM,37.4,37.4,100,29.54,3.0,Calm,Calm,-,N/A,,Overcast,0,2013-03-20 15:20:00
8:38 AM,37.4,37.4,100,29.53,5.0,Calm,Calm,-,N/A,,Overcast,0,2013-03-20 15:38:00
8:53 AM,37.9,37.0,97,29.55,6.0,Calm,Calm,-,N/A,,Overcast,0,2013-03-20 15:53:00
9:53 AM,39.0,37.9,96,29.53,9.0,Calm,Calm,-,N/A,,Overcast,0,2013-03-20 16:53:00
10:53 AM,43.0,39.0,86,29.51,10.0,SSE,5.8,-,N/A,,Mostly Cloudy,150,2013-03-20 17:53:00
11:08 AM,44.6,39.2,81,29.49,10.0,South,5.8,-,N/A,,Scattered Clouds,170,2013-03-20 18:08:00
11:53 AM,48.9,43.0,80,29.51,10.0,SSW,9.2,-,N/A,,Partly Cloudy,210,2013-03-20 18:53:00
12:53 PM,50.0,42.1,74,29.51,10.0,SW,18.4,25.3,N/A,,Clear,230,2013-03-20 19:53:00
1:53 PM,53.1,41.0,64,29.50,10.0,WSW,13.8,-,N/A,,Clear,240,2013-03-20 20:53:00
2:53 PM,57.9,34.0,41,29.52,10.0,WSW,24.2,29.9,N/A,,Scattered Clouds,250,2013-03-20 21:53:00
3:53 PM,53.1,30.0,41,29.57,10.0,West,20.7,-,N/A,,Scattered Clouds,260,2013-03-20 22:53:00
4:53 PM,54.0,25.0,33,29.59,10.0,West,26.5,35.7,N/A,,Partly Cloudy,260,2013-03-20 23:53:00
5:53 PM,50.0,27.0,41,29.63,10.0,WSW,28.8,39.1,N/A,,Clear,240,2013-03-21 00:53:00
6:53 PM,46.9,25.0,42,29.66,10.0,WSW,19.6,28.8,N/A,,Clear,240,2013-03-21 01:53:00
7:53 PM,44.1,25.0,47,29.71,10.0,WSW,12.7,-,N/A,,Clear,250,2013-03-21 02:53:00
8:53 PM,43.0,24.1,47,29.74,10.0,SW,10.4,-,N/A,,Clear,230,2013-03-21 03:53:00
9:53 PM,44.1,19.9,38,29.76,10.0,West,20.7,27.6,N/A,,Clear,280,2013-03-21 04:53:00
10:53 PM,36.0,24.1,62,29.80,10.0,SSW,11.5,-,N/A,,Clear,210,2013-03-21 05:53:00
11:53 PM,39.9,18.0,41,29.81,10.0,West,15.0,-,N/A,,Clear,280,2013-03-21 06:53:00